| time (UTC) | temp C | wind direction | speed KPH | gust KPH | rain 1hr cm | rain 24hr cm | rain mn cm | humidity % | barometer mb |
| 20260508220025 | 14 | 155 | 0.0 | 4.8 | 0.00 | 0.03 | 0.03 | 54 | 1012.6 |
| 20260508214525 | 14 | 283 | 1.6 | 6.4 | 0.00 | 0.03 | 0.03 | 54 | 1012.8 |
| 20260508213026 | 14 | 243 | 1.6 | 8.0 | 0.00 | 0.03 | 0.03 | 52 | 1013.0 |
| 20260508211522 | 14 | 81 | 0.0 | 6.4 | 0.00 | 0.03 | 0.03 | 51 | 1013.1 |
| 20260508210022 | 14 | 284 | 1.6 | 11.3 | 0.00 | 0.03 | 0.03 | 52 | 1013.1 |
| 20260508204621 | 14 | 273 | 0.0 | 19.3 | 0.00 | 0.03 | 0.03 | 51 | 1012.7 |
| 20260508203020 | 14 | 78 | 0.0 | 9.7 | 0.00 | 0.03 | 0.03 | 53 | 1012.8 |
| 20260508201522 | 14 | 22 | 3.2 | 8.0 | 0.00 | 0.03 | 0.03 | 53 | 1012.9 |
| 20260508200023 | 13 | 150 | 4.8 | 12.9 | 0.00 | 0.03 | 0.03 | 51 | 1013.0 |
| 20260508194518 | 13 | 179 | 1.6 | 8.0 | 0.00 | 0.03 | 0.03 | 60 | 1013.4 |
| 20260508193117 | 13 | 51 | 1.6 | 17.7 | 0.00 | 0.03 | 0.03 | 53 | 1013.4 |
| 20260508191524 | 15 | 19 | 1.6 | 11.3 | 0.00 | 0.03 | 0.03 | 48 | 1013.3 |
| 20260508190024 | 15 | 28 | 3.2 | 9.7 | 0.00 | 0.03 | 0.03 | 47 | 1013.0 |
| 20260508184516 | 15 | 49 | 3.2 | 8.0 | 0.00 | 0.03 | 0.03 | 50 | 1013.0 |
| 20260508183015 | 14 | 167 | 1.6 | 6.4 | 0.00 | 0.03 | 0.03 | 48 | 1013.0 |
| 20260508181517 | 15 | 271 | 3.2 | 11.3 | 0.00 | 0.03 | 0.03 | 45 | 1012.9 |
| 20260508180014 | 15 | 285 | 0.0 | 6.4 | 0.00 | 0.03 | 0.03 | 52 | 1012.7 |
| 20260508174513 | 15 | 264 | 1.6 | 12.9 | 0.00 | 0.03 | 0.03 | 48 | 1012.7 |
| 20260508173013 | 15 | 229 | 4.8 | 12.9 | 0.00 | 0.03 | 0.03 | 45 | 1012.9 |
| 20260508171519 | 15 | 192 | 0.0 | 4.8 | 0.00 | 0.03 | 0.03 | 46 | 1012.7 |
| 20260508170012 | 15 | 261 | 0.0 | 8.0 | 0.00 | 0.03 | 0.03 | 46 | 1012.7 |
| 20260508164512 | 16 | 31 | 0.0 | 12.9 | 0.00 | 0.03 | 0.03 | 44 | 1012.9 |
| 20260508163014 | 16 | 217 | 3.2 | 16.1 | 0.00 | 0.03 | 0.03 | 42 | 1013.1 |
| 20260508161507 | 16 | 141 | 1.6 | 6.4 | 0.00 | 0.03 | 0.03 | 42 | 1013.1 |
| 20260508160005 | 15 | 263 | 0.0 | 11.3 | 0.00 | 0.03 | 0.03 | 44 | 1013.4 |
| 20260508154505 | 15 | 99 | 3.2 | 12.9 | 0.00 | 0.03 | 0.03 | 43 | 1013.5 |
| 20260508153004 | 15 | 277 | 1.6 | 9.7 | 0.00 | 0.03 | 0.03 | 41 | 1013.4 |
| 20260508151501 | 15 | 265 | 0.0 | 4.8 | 0.00 | 0.03 | 0.03 | 47 | 1013.5 |
| 20260508150059 | 14 | 176 | 3.2 | 14.5 | 0.00 | 0.03 | 0.03 | 49 | 1013.7 |
| 20260508144558 | 13 | 283 | 0.0 | 6.4 | 0.00 | 0.03 | 0.03 | 46 | 1013.9 |
| 20260508143101 | 13 | 283 | 0.0 | 9.7 | 0.00 | 0.03 | 0.03 | 43 | 1014.0 |
| 20260508141613 | 12 | 13 | 3.2 | 9.7 | 0.00 | 0.03 | 0.03 | 60 | 1013.7 |
| 20260508140050 | 12 | 118 | 0.0 | 6.4 | 0.00 | 0.03 | 0.03 | 57 | 1013.8 |
| 20260508134555 | 11 | 264 | 0.0 | 6.4 | 0.00 | 0.03 | 0.03 | 59 | 1013.9 |
| 20260508133043 | 11 | 82 | 0.0 | 6.4 | 0.00 | 0.03 | 0.03 | 70 | 1014.0 |
| 20260508131640 | 10 | 265 | 0.0 | 0.0 | 0.00 | 0.03 | 0.03 | 71 | 1014.0 |
| 20260508130036 | 10 | 265 | 0.0 | 4.8 | 0.00 | 0.03 | 0.03 | 73 | 1014.0 |
| 20260508124534 | 10 | 262 | 0.0 | 8.0 | 0.00 | 0.03 | 0.03 | 77 | 1014.4 |
| 20260508123043 | 9 | 182 | 3.2 | 9.7 | 0.00 | 0.03 | 0.03 | 75 | 1014.4 |
| 20260508121532 | 8 | 65 | 1.6 | 6.4 | 0.00 | 0.03 | 0.03 | 81 | 1014.3 |
| 20260508120026 | 7 | 53 | 0.0 | 3.2 | 0.00 | 0.03 | 0.03 | 91 | 1014.3 |
| 20260508114523 | 6 | 339 | 0.0 | 0.0 | 0.00 | 0.03 | 0.03 | 94 | 1014.0 |
| 20260508113030 | 6 | 340 | 0.0 | 0.0 | 0.00 | 0.03 | 0.03 | 93 | 1013.9 |
| 20260508111520 | 6 | 341 | 0.0 | 0.0 | 0.00 | 0.03 | 0.03 | 93 | 1013.9 |
| 20260508110019 | 5 | 340 | 0.0 | 0.0 | 0.00 | 0.03 | 0.03 | 92 | 1013.8 |
| 20260508104521 | 5 | 341 | 0.0 | 0.0 | 0.00 | 0.03 | 0.03 | 92 | 1013.7 |
| 20260508103017 | 5 | 341 | 0.0 | 0.0 | 0.00 | 0.03 | 0.03 | 91 | 1013.5 |
| 20260508101519 | 6 | 341 | 0.0 | 0.0 | 0.00 | 0.03 | 0.03 | 91 | 1013.5 |
| 20260508100016 | 6 | 341 | 0.0 | 0.0 | 0.00 | 0.10 | 0.03 | 91 | 1013.4 |
| 20260508094514 | 6 | 341 | 0.0 | 0.0 | 0.00 | 0.10 | 0.03 | 91 | 1013.3 |
| 20260508093016 | 6 | 341 | 0.0 | 0.0 | 0.00 | 0.10 | 0.03 | 91 | 1013.2 |
| 20260508091519 | 6 | 341 | 0.0 | 0.0 | 0.00 | 0.10 | 0.03 | 91 | 1012.9 |
| 20260508090022 | 6 | 53 | 0.0 | 3.2 | 0.00 | 0.30 | 0.03 | 91 | 1012.7 |
| 20260508084510 | 6 | 61 | 0.0 | 1.6 | 0.00 | 0.30 | 0.03 | 91 | 1012.9 |
| 20260508083009 | 6 | 61 | 0.0 | 0.0 | 0.00 | 0.30 | 0.03 | 91 | 1012.8 |
| 20260508081510 | 6 | 61 | 0.0 | 0.0 | 0.00 | 0.30 | 0.03 | 90 | 1012.9 |
| 20260508080008 | 6 | 61 | 0.0 | 0.0 | 0.03 | 0.48 | 0.03 | 90 | 1012.7 |
| 20260508074508 | 6 | 61 | 0.0 | 0.0 | 0.03 | 0.48 | 0.03 | 89 | 1013.0 |
| 20260508073007 | 6 | 61 | 0.0 | 0.0 | 0.03 | 0.48 | 0.03 | 88 | 1013.2 |
| 20260508071515 | 7 | 61 | 0.0 | 3.2 | 0.03 | 0.48 | 0.03 | 87 | 1013.3 |
| 20260508070005 | 7 | 49 | 0.0 | 1.6 | 0.00 | 0.56 | 0.00 | 85 | 1013.4 |
| 20260508064503 | 7 | 59 | 0.0 | 3.2 | 0.00 | 0.56 | 0.00 | 80 | 1013.5 |
| 20260508063000 | 8 | 24 | 1.6 | 6.4 | 0.00 | 0.56 | 0.00 | 72 | 1013.4 |
| 20260508061558 | 7 | 355 | 0.0 | 0.0 | 0.00 | 0.56 | 0.00 | 82 | 1012.5 |
| 20260508060053 | 6 | 51 | 0.0 | 0.0 | 0.00 | 0.56 | 0.00 | 89 | 1011.3 |
| 20260508054550 | 6 | 51 | 0.0 | 0.0 | 0.00 | 0.56 | 0.00 | 89 | 1011.1 |
| 20260508053049 | 5 | 51 | 0.0 | 0.0 | 0.00 | 0.56 | 0.00 | 90 | 1011.2 |
| 20260508051545 | 5 | 51 | 0.0 | 0.0 | 0.00 | 0.56 | 0.00 | 90 | 1011.2 |
| 20260508050045 | 5 | 51 | 0.0 | 0.0 | 0.00 | 0.56 | 0.00 | 89 | 1011.1 |
| 20260508044543 | 5 | 51 | 0.0 | 0.0 | 0.00 | 0.56 | 0.00 | 88 | 1011.0 |
| 20260508043045 | 5 | 51 | 0.0 | 0.0 | 0.00 | 0.56 | 0.00 | 87 | 1011.0 |
| 20260508041539 | 5 | 51 | 0.0 | 0.0 | 0.00 | 0.56 | 0.00 | 87 | 1011.0 |
| 20260508040036 | 5 | 51 | 0.0 | 0.0 | 0.00 | 0.56 | 0.00 | 85 | 1011.0 |
| 20260508034534 | 6 | 51 | 0.0 | 0.0 | 0.00 | 0.56 | 0.56 | 84 | 1011.1 |
| 20260508033034 | 6 | 51 | 0.0 | 0.0 | 0.00 | 0.56 | 0.56 | 84 | 1011.0 |
| 20260508031532 | 6 | 51 | 0.0 | 0.0 | 0.00 | 0.56 | 0.56 | 83 | 1011.0 |
| 20260508030031 | 6 | 51 | 0.0 | 0.0 | 0.00 | 0.56 | 0.56 | 81 | 1011.1 |
| 20260508024535 | 6 | 51 | 0.0 | 0.0 | 0.00 | 0.56 | 0.56 | 79 | 1011.0 |
| 20260508023028 | 7 | 51 | 0.0 | 0.0 | 0.00 | 0.56 | 0.56 | 78 | 1010.9 |
| 20260508021532 | 7 | 51 | 0.0 | 0.0 | 0.00 | 0.56 | 0.56 | 76 | 1010.9 |
| 20260508020020 | 7 | 51 | 0.0 | 0.0 | 0.00 | 0.61 | 0.56 | 74 | 1010.8 |
| 20260508014518 | 8 | 51 | 0.0 | 0.0 | 0.00 | 0.61 | 0.56 | 72 | 1010.9 |
| 20260508013024 | 8 | 51 | 0.0 | 0.0 | 0.00 | 0.61 | 0.56 | 68 | 1010.8 |
| 20260508011515 | 9 | 51 | 0.0 | 0.0 | 0.00 | 0.61 | 0.56 | 65 | 1010.6 |
| 20260508010015 | 10 | 51 | 0.0 | 0.0 | 0.00 | 0.61 | 0.56 | 62 | 1010.5 |
| 20260508004521 | 10 | 51 | 0.0 | 0.0 | 0.00 | 0.61 | 0.56 | 58 | 1010.3 |
| 20260508003010 | 11 | 51 | 0.0 | 0.0 | 0.00 | 0.61 | 0.56 | 55 | 1010.0 |
| 20260508001517 | 12 | 51 | 0.0 | 0.0 | 0.00 | 0.61 | 0.56 | 53 | 1009.7 |
| 20260508000010 | 12 | 51 | 0.0 | 0.0 | 0.00 | 0.61 | 0.56 | 51 | 1009.8 |
| 20260507234510 | 13 | 51 | 0.0 | 0.0 | 0.00 | 0.61 | 0.56 | 52 | 1009.6 |
| 20260507233010 | 14 | 51 | 0.0 | 0.0 | 0.00 | 0.61 | 0.56 | 49 | 1009.4 |
| 20260507231508 | 15 | 5 | 0.0 | 1.6 | 0.00 | 0.61 | 0.56 | 43 | 1009.3 |
| 20260507230006 | 15 | 14 | 0.0 | 3.2 | 0.00 | 0.61 | 0.56 | 41 | 1009.1 |
| 20260507224505 | 15 | 22 | 0.0 | 4.8 | 0.00 | 0.61 | 0.56 | 42 | 1009.0 |
| 20260507223006 | 15 | 59 | 0.0 | 3.2 | 0.00 | 0.61 | 0.56 | 39 | 1009.0 |
| 20260507221510 | 15 | 59 | 0.0 | 6.4 | 0.00 | 0.61 | 0.56 | 36 | 1009.1 |